Regional Weather Roundup
Issued by NWS

Home | Current Version | Previous Version | Graphics & Text | Print | Product List | Glossary On
Versions: 1 2 3 4 5 6 7 8 9 10 11 12 13 14 15 16 17 18 19 20 21 22 23 24 25 26 27
000
ASUS45 KPSR 212310
RWRAZ

ARIZONA HOURLY REGIONAL WEATHER ROUNDUP
NATIONAL WEATHER SERVICE PHOENIX AZ
400 PM MST SUN JAN 21 2018

NOTE: FAIR INDICATES FEW OR NO CLOUDS BELOW 12,000 FEET WITH NO
SIGNIFICANT WEATHER AND/OR OBSTRUCTIONS TO VISIBILITY.

AZZ001>003-036-220000-
NORTHWEST ARIZONA

CITY           SKY/WX    TMP DP  RH WIND       PRES   REMARKS
BULLHEAD CITY  SUNNY     59  14  17 NW17      30.25S
KINGMAN        SUNNY    N/A N/A N/A N16       30.23R
$$

AZZ004>008-015-016-018-220000-
NORTH CENTRAL ARIZONA

CITY           SKY/WX    TMP DP  RH WIND       PRES   REMARKS
GRAND CANYON   SUNNY     31  12  45 W9G18     30.11R WCI  23
WILLIAMS       SUNNY     28  12  50 NW9       30.11S WCI  20
PRESCOTT       SUNNY     40  15  36 NW7       30.15R
FLAGSTAFF      SUNNY     30   9  41 SW10      30.09R WCI  21
PAYSON         SUNNY     37  19  48 VRB5      30.12S WCI  34
PAGE           SUNNY     43   9  24 NW17G32   30.10R
$$

AZZ009>014-017-220000-
NORTHEAST ARIZONA

CITY           SKY/WX    TMP DP  RH WIND       PRES   REMARKS
WINSLOW        SUNNY     44   6  21 NW18      30.09R
SAINT JOHNS    CLOUDY    34  14  43 W16       30.07R WCI  24
WINDOW ROCK    MOSUNNY   30  18  60 W10       30.02R WCI  21
SHOW LOW       SUNNY     30  16  55 W8        30.09F WCI  23
$$

AZZ540-542>544-546-548-220000-
GREATER PHOENIX AREA

CITY           SKY/WX    TMP DP  RH WIND       PRES   REMARKS
PHOENIX        MOSUNNY   58  17  20 N12G18    30.16F
BUCKEYE        SUNNY     57  10  15 N5        30.19S
GLENDALE       MOSUNNY   59  18  20 W8        30.18F
LUKE AFB       SUNNY     58  15  18 NW6       30.15F
DEER VALLEY    SUNNY     55  18  23 S3        30.15F
SCOTTSDALE     SUNNY     55  20  25 W6        30.18F
MESA-GATEWAY   MOSUNNY   55  18  22 W13       30.19S
CHANDLER       SUNNY     57  16  19 W9        30.18S
$$

AZZ539-553-220000-
SOUTHWEST MARICOPA COUNTY AND PINAL COUNTY

CITY           SKY/WX    TMP DP  RH WIND       PRES   REMARKS
CASA GRANDE    NOT AVBL
GILA BEND      FAIR      59  11  15 W7        30.18F
$$

AZZ503-504-507>509-220000-
SOUTHEAST ARIZONA

CITY           SKY/WX    TMP DP  RH WIND       PRES   REMARKS
TUCSON         SUNNY     53  16  23 N13G18    30.18S
DAVIS-MONTHAN  SUNNY     50  16  25 NW13      30.15F
RYAN FIELD     SUNNY     54  16  22 NW14      30.19S
NOGALES        SUNNY     51   5  15 NW12      30.14R
SIERRA VISTA   SUNNY     46   7  20 W17       30.14R
DOUGLAS        SUNNY     51   6  16 NW15      30.12R
SAFFORD        SUNNY     50  19  29 NW18G28   30.09R
$$

AZZ532-220000-
SOUTHWEST ARIZONA

CITY           SKY/WX    TMP DP  RH WIND       PRES   REMARKS
YUMA           SUNNY     64  12  13 N10       30.23F
$$

CAZ041-043-047-048-061-525>527-560>570-220000-
SOUTHERN CALIFORNIA

CITY           SKY/WX    TMP DP  RH WIND       PRES   REMARKS
DOWNTOWN L.A.  SUNNY     62  23  22 CALM      30.24S
L.A. AIRPORT   MOSUNNY   62  32  32 W9        30.25F
SAN DIEGO      PTSUNNY   62  42  47 NW9       30.26F
BURBANK        SUNNY     63  22  20 CALM      30.23F
ONTARIO        PTSUNNY   61  20  20 W8        30.23F
RIVERSIDE      PTSUNNY   61  24  24 W8        30.23S
PALM SPRINGS   SUNNY     66  13  12 SW3       30.25S
EL CENTRO NAS  SUNNY     64  11  12 CALM      30.26F
IMPERIAL       SUNNY     64  14  14 NW7       30.24F
BLYTHE         SUNNY     62  13  14 N6        30.24S
NEEDLES        SUNNY     61  12  14 NE17      30.25R
$$

NVZ020-UTZ003-220000-
SOUTHERN NEVADA-UTAH

CITY           SKY/WX    TMP DP  RH WIND       PRES   REMARKS
LAS VEGAS      MOSUNNY   54  13  19 N14       30.24S
SALT LAKE CITY SUNNY     35  22  58 CALM      30.23R
$$

NMZ009-TXZ055-220000-
NEW MEXICO-WEST TEXAS

CITY           SKY/WX    TMP DP  RH WIND       PRES   REMARKS
ALBUQUERQUE    PTSUNNY   38  12  34 NW22G32   29.92R WCI  27
EL PASO        MOSUNNY   51   9  18 W24G40    29.98R
$$


........................KEY........................
SKY/WX - SKY CONDITION/WEATHER
TMP    - TEMPERATURE IN FAHRENHEIT
DP     - DEW POINT IN FAHRENHEIT
RH     - RELATIVE HUMIDITY IN PERCENT
WIND   - DIRECTION AND SPEED IN MILES PER HOUR (MPH)
VRB    - VARIABLE WIND DIRECTION
PRES   - MEAN SEA LEVEL PRESSURE IN INCHES OF MERCURY
         F - FALLING PRESSURE   R - RISING PRESSURE
         S - STEADY PRESSURE
VSB    - VISIBILITY IN MILES
HX     - HEAT INDEX IN FAHRENHEIT
WCI    - WIND CHILL INDEX IN FAHRENHEIT
TC     - TEMPERATURE IN CELSIUS WHICH IS ALSO KNOWN AS
         TEMPERATURE IN CENTIGRADE
AFB    - AIR FORCE BASE
         LUKE AFB IS LUKE AIR FORCE BASE
         DAVIS-MONTHAN IS DAVIS-MONTHAN AIR FORCE BASE
NAS    - NAVAL AIR STATION
         EL CENTRO NAS IS EL CENTRO NAVAL AIR STATION
N/A    - NOT AVAILABLE





USA.gov is the U.S. government's official web portal to all federal, state and local government web resources and services.